15min,AgWx,beryljct,423,25SEP2020:00:00:00,65.1,12.89,63.0,62.4,64.3,66.6,61.7,32,36,31,0.663,34.2,35.7,33.0,6.029,5.9,187,5.9,7.2,0.00048,0.00068,65.1,66.0,10,0,.,.,4.28,0.01,0.00
15min,AgWx,beryljct,423,25SEP2020:00:15:00,64.0,12.87,62.7,62.5,63.0,63.8,62.4,33,34,32,0.642,33.6,34.3,33.0,4.845,5.2,189,5.9,6.7,0.00039,0.00057,64.9,65.9,10,0,.,.,4.27,0.00,0.00
15min,AgWx,beryljct,423,25SEP2020:00:30:00,62.8,12.87,61.7,61.8,62.0,62.6,61.2,35,36,33,0.640,33.8,34.6,33.1,5.393,5.0,184,11,6.0,0.00035,0.00052,64.7,65.9,9,0,.,.,4.27,0.00,0.00
15min,AgWx,beryljct,423,25SEP2020:00:45:00,62.0,12.86,63.4,62.9,61.9,62.9,60.8,34,36,33,0.662,33.4,34.4,32.0,5.415,5.5,191,5.6,6.2,0.00040,0.00058,64.5,65.8,10,0,.,.,4.27,0.00,0.00
15min,AgWx,beryljct,423,25SEP2020:01:00:00,61.4,12.85,64.2,63.0,62.7,64.3,61.4,36,38,33,0.740,35.6,37.0,33.0,5.283,5.5,202,4.7,6.1,0.00039,0.00056,64.3,65.8,10,0,.,.,4.28,0.00,0.00
15min,AgWx,beryljct,423,25SEP2020:01:15:00,61.3,12.84,64.6,66.2,64.1,66.5,61.9,35,40,32,0.714,36.0,37.4,35.2,5.305,4.9,210,3.2,5.9,0.00036,0.00053,64.2,65.7,10,0,.,.,4.28,0.00,0.00
15min,AgWx,beryljct,423,25SEP2020:01:30:00,61.4,12.84,59.7,60.5,63.8,66.0,60.5,35,37,33,0.626,35.3,37.0,32.4,5.48,5.2,196,8.1,6.0,0.00039,0.00057,64.0,65.7,10,0,.,.,4.27,0.00,0.00
15min,AgWx,beryljct,423,25SEP2020:01:45:00,60.5,12.83,62.9,61.8,59.1,61.8,57.3,39,41,35,0.700,34.0,35.5,32.5,4.406,4.5,205,6.3,5.5,0.00025,0.00038,63.8,65.6,10,0,.,.,4.28,0.00,0.00
15min,AgWx,beryljct,423,25SEP2020:02:00:00,60.1,12.82,52.8,55.2,61.5,63.8,55.2,39,49,35,0.720,36.1,37.7,35.2,2.828,4.1,195,36,6.4,0.00023,0.00036,63.6,65.6,10,0,.,.,4.28,0.00,0.00
15min,AgWx,beryljct,423,25SEP2020:02:15:00,58.7,12.8,48.4,51.1,53.1,55.2,51.1,47,55,43,0.617,33.3,36.3,31.7,0.877,3.2,57,4.3,4.2,0.00006,0.00012,63.4,65.5,9,0,.,.,4.28,0.01,0.00
15min,AgWx,beryljct,423,25SEP2020:02:30:00,56.7,12.81,51.4,50.7,50.1,50.9,49.4,58,63,50,0.736,35.7,37.5,32.6,3.42,3.9,313,17,5.2,0.00005,0.00010,63.2,65.5,10,0,.,.,4.28,0.00,0.00
15min,AgWx,beryljct,423,25SEP2020:02:45:00,55.3,12.8,53.8,53.1,53.0,55.1,50.7,53,58,46,0.736,36.4,38.0,34.6,1.995,3.5,296,4.9,4.8,0.00006,0.00011,63.0,65.4,10,0,.,.,4.28,0.00,0.00
15min,AgWx,beryljct,423,25SEP2020:03:00:00,54.1,12.79,45.7,47.3,50.3,54.5,47.0,58,68,49,0.707,36.1,37.2,34.2,3.266,3.4,90,57,6.1,0.00002,0.00006,62.8,65.3,9,0,.,.,4.28,0.00,0.00
15min,AgWx,beryljct,423,25SEP2020:03:15:00,52.7,12.79,51.5,49.7,48.3,49.7,46.5,59,65,55,0.667,34.7,35.6,34.2,3.398,2.2,187,34,3.6,-0.00008,-0.00008,62.6,65.3,10,0,.,.,4.28,0.00,0.00
15min,AgWx,beryljct,423,25SEP2020:03:30:00,51.8,12.78,50.8,50.4,50.1,51.4,47.1,57,68,51,0.733,35.3,37.6,33.6,1.096,2.8,254,45,4.9,-0.00002,0.00000,62.4,65.2,10,0,.,.,4.29,0.00,0.00
15min,AgWx,beryljct,423,25SEP2020:03:45:00,51.2,12.75,51.1,49.4,50.9,52.1,49.2,56,60,50,0.705,35.7,37.0,34.0,2.28,1.6,10,48,2.6,-0.00013,-0.00016,62.2,65.2,10,0,.,.,4.29,0.00,0.00
15min,AgWx,beryljct,423,25SEP2020:04:00:00,50.6,12.76,49.0,48.1,48.1,51.4,46.2,62,69,52,0.707,35.8,36.5,34.4,0,0.7,58,21,2.6,-0.00023,-0.00033,62.0,65.1,9,0,.,.,4.29,0.00,0.00
15min,AgWx,beryljct,423,25SEP2020:04:15:00,50.2,12.75,52.3,51.8,51.1,54.7,48.3,54,62,44,0.699,34.7,35.7,33.4,2.455,1.2,227,59,2.6,-0.00018,-0.00025,61.8,65.0,10,0,.,.,4.29,0.00,0.00
15min,AgWx,beryljct,423,25SEP2020:04:30:00,50.1,12.75,52.8,52.6,51.5,52.6,50.2,60,65,54,0.731,37.9,38.9,35.6,3.924,1.7,301,7.5,3.9,-0.00013,-0.00016,61.6,64.9,9,0,.,.,4.29,0.00,0.00
15min,AgWx,beryljct,423,25SEP2020:04:45:00,50.1,12.74,52.2,51.4,52.0,53.3,50.0,51,57,48,0.667,34.5,36.1,33.8,0,1.2,341,32,4.5,-0.00016,-0.00021,61.4,64.9,10,0,.,.,4.29,0.00,0.00
15min,AgWx,beryljct,423,25SEP2020:05:00:00,50.0,12.73,44.4,45.6,49.3,51.7,45.6,57,66,51,0.662,34.6,35.4,34.0,2.959,1.7,109,24,3.4,-0.00013,-0.00015,61.2,64.8,9,0,.,.,4.29,0.00,0.00
15min,AgWx,beryljct,423,25SEP2020:05:15:00,49.0,12.73,42.9,43.2,43.5,45.4,42.7,68,70,64,0.636,33.6,34.4,32.8,0.373,1.6,126,29,3.6,-0.00014,-0.00018,61.0,64.7,9,0,.,.,4.29,0.00,0.00
15min,AgWx,beryljct,423,25SEP2020:05:30:00,47.8,12.72,44.8,44.5,43.7,44.5,42.6,63,67,61,0.605,32.1,32.7,31.6,3.135,2.5,180,6.0,4.2,-0.00007,-0.00007,60.8,64.7,9,0,.,.,4.29,0.00,0.00
15min,AgWx,beryljct,423,25SEP2020:05:45:00,47.1,12.7,44.9,44.8,45.6,46.2,44.2,58,61,57,0.599,31.8,32.3,31.0,3.091,3.7,163,8.9,4.8,0.00034,0.00059,60.6,64.6,10,0,.,.,4.29,0.00,0.00
15min,AgWx,beryljct,423,25SEP2020:06:00:00,46.6,12.69,45.8,45.0,44.3,45.0,42.9,57,60,55,0.576,30.1,31.5,29.1,3.727,2.7,186,14,3.7,0.00025,0.00044,60.4,64.5,10,0,.,.,4.29,0.00,0.00
15min,AgWx,beryljct,423,25SEP2020:06:15:00,46.1,12.7,46.9,47.1,46.2,48.4,42.5,56,64,50,0.551,31.3,31.9,29.5,6.314,3.6,179,11,6.3,0.00035,0.00060,60.2,64.4,9,1,.,.,4.29,0.00,0.00
15min,AgWx,beryljct,423,25SEP2020:06:30:00,46.2,12.7,44.8,45.4,47.1,48.5,45.4,52,58,50,0.603,30.3,31.8,29.2,3.091,4.8,175,21,7.1,0.00051,0.00088,60.0,64.4,9,4,.,.,4.29,0.00,0.00
15min,AgWx,beryljct,423,25SEP2020:06:45:00,46.2,12.72,48.0,46.5,44.8,46.5,42.7,60,67,56,0.604,31.7,32.4,31.1,0,1.1,91,7.8,4.2,0.00024,0.00033,59.8,64.2,10,24,.,.,4.29,0.00,0.00
15min,AgWx,beryljct,423,25SEP2020:07:00:00,46.4,12.77,45.6,45.0,44.9,47.1,43.7,60,67,55,0.608,32.0,34.2,30.6,2.85,3.7,326,27,6.1,0.00059,0.00084,59.6,64.2,9,60,.,.,4.29,0.00,0.00
15min,AgWx,beryljct,423,25SEP2020:07:15:00,47.0,12.85,49.1,49.0,46.6,49.2,45.0,58,62,54,0.656,32.8,34.9,30.3,4.779,4.2,320,25,6.0,0.00078,0.00109,59.4,64.1,10,98,.,.,4.29,0.00,0.00
15min,AgWx,beryljct,423,25SEP2020:07:30:00,48.4,12.96,52.1,51.3,49.3,51.3,48.3,61,65,56,0.787,36.5,38.5,33.8,0.241,1.6,313,5.9,4.8,0.00080,0.00096,59.2,64.0,9,136,.,.,4.29,0.00,0.00
15min,AgWx,beryljct,423,25SEP2020:07:45:00,50.7,13.22,56.0,55.9,54.1,55.9,51.4,57,62,52,0.884,39.4,41.6,37.6,0.438,0.3,296,11,1.9,0.00097,0.00106,59.1,63.9,10,181,.,.,4.29,0.00,0.00
15min,AgWx,beryljct,423,25SEP2020:08:00:00,53.6,13.52,54.9,54.8,54.7,55.9,54.0,64,68,58,0.955,42.6,44.6,40.8,2.894,2.5,103,12,5.3,0.00136,0.00161,58.9,63.8,9,231,.,.,4.28,0.00,0.00
15min,AgWx,beryljct,423,25SEP2020:08:15:00,56.0,14.09,56.2,55.9,55.2,55.9,54.7,63,66,58,0.893,42.8,43.9,41.1,1.206,2.1,111,7.1,3.2,0.00157,0.00182,58.8,63.7,9,274,.,.,4.28,0.00,0.00
15min,AgWx,beryljct,423,25SEP2020:08:30:00,58.4,14.32,59.0,58.8,57.1,58.8,55.9,58,63,52,0.877,42.7,45.2,41.1,1.14,1.3,84,14,3.2,0.00187,0.00209,58.8,63.6,9,327,.,.,4.28,0.00,0.00
15min,AgWx,beryljct,423,25SEP2020:08:45:00,61.3,14.23,61.7,61.6,60.4,61.6,58.8,49,55,45,0.855,41.0,42.9,39.8,0.745,0.4,106,12,1.4,0.00218,0.00236,58.8,63.6,9,378,.,.,4.28,0.00,0.00
15min,AgWx,beryljct,423,25SEP2020:09:00:00,64.2,14.25,62.9,62.8,62.7,63.4,61.6,42,46,37,0.781,39.2,41.5,36.2,5.897,4.0,43,14,7.6,0.00284,0.00347,58.8,63.5,9,426,.,.,4.27,0.00,0.00
15min,AgWx,beryljct,423,25SEP2020:09:15:00,66.4,14.19,66.8,66.2,64.5,66.3,62.8,37,42,32,0.700,37.7,40.3,35.3,3.486,5.0,41,19,7.4,0.00332,0.00414,58.9,63.4,9,475,.,.,4.27,0.00,0.00
15min,AgWx,beryljct,423,25SEP2020:09:30:00,68.9,14.18,68.7,68.4,67.5,68.5,66.2,32,35,30,0.754,36.5,38.3,34.8,0.482,2.1,24,25,3.3,0.00342,0.00397,59.0,63.3,9,517,.,.,4.27,0.00,0.00
15min,AgWx,beryljct,423,25SEP2020:09:45:00,71.8,14.1,70.5,69.2,68.9,69.5,68.4,30,32,29,0.758,36.4,37.6,35.2,1.206,1.7,297,14,3.0,0.00362,0.00413,59.2,63.2,9,549,.,.,4.26,0.00,0.00
15min,AgWx,beryljct,423,25SEP2020:10:00:00,74.4,14.1,71.5,72.0,70.8,72.3,69.3,31,33,28,0.748,38.4,41.5,35.1,3.639,1.7,52,44,3.9,0.00396,0.00449,59.4,63.1,9,594,.,.,4.25,0.00,0.00
15min,AgWx,beryljct,423,25SEP2020:10:15:00,76.4,14.09,73.8,74.4,73.0,74.6,71.9,33,37,28,0.948,42.3,46.3,37.3,4.889,4.5,95,12,6.6,0.00468,0.00563,59.7,63.1,9,646,.,.,4.25,0.00,0.00
15min,AgWx,beryljct,423,25SEP2020:10:30:00,78.1,13.56,80.2,79.8,77.9,79.8,74.4,23,36,18,0.686,36.7,46.3,31.6,10.15,8.3,193,37,14.1,0.00565,0.00737,60.1,63.0,9,662,.,.,4.25,0.00,0.00
15min,AgWx,beryljct,423,25SEP2020:10:45:00,79.6,13.55,79.6,79.7,79.6,80.2,79.3,19,20,17,0.647,33.2,35.0,31.4,9.03,11.5,196,14,17.0,0.00629,0.00862,60.5,63.0,9,656,.,.,4.25,0.00,0.00
15min,AgWx,beryljct,423,25SEP2020:11:00:00,80.6,13.52,80.0,80.6,79.8,80.7,79.2,18,20,17,0.668,33.3,36.0,31.4,12.78,10.0,208,16,17.5,0.00636,0.00848,60.9,62.9,9,706,.,.,4.24,0.00,0.00
15min,AgWx,beryljct,423,25SEP2020:11:15:00,81.5,13.49,80.6,80.8,80.3,81.0,79.4,18,20,17,0.661,33.4,35.6,31.7,13.35,10.4,191,21,17.5,0.00656,0.00878,61.4,62.9,9,725,.,.,4.25,0.00,0.00
15min,AgWx,beryljct,423,25SEP2020:11:30:00,82.4,13.51,80.0,80.5,80.8,81.4,80.3,18,19,16,0.588,32.9,35.0,30.2,12.5,12.9,191,20,20.3,0.00707,0.00968,61.8,62.8,9,746,.,.,4.24,0.00,0.00
15min,AgWx,beryljct,423,25SEP2020:11:45:00,82.8,13.49,80.2,80.7,81.0,81.5,80.5,18,20,16,0.641,33.1,36.5,31.2,8.57,12.8,210,10,18.5,0.00714,0.00975,62.3,62.8,9,762,.,.,4.24,0.00,0.00
15min,AgWx,beryljct,423,25SEP2020:12:00:00,83.1,13.48,82.0,81.2,80.9,81.8,80.3,18,20,16,0.670,32.9,36.5,30.8,12.58,11.4,206,17,19.3,0.00672,0.00912,62.9,62.8,9,718,.,.,4.24,0.00,0.00
15min,AgWx,beryljct,423,25SEP2020:12:15:00,83.5,13.47,81.3,81.5,81.7,82.5,81.0,18,19,16,0.665,33.8,36.0,31.3,9.82,12.0,204,14,19.1,0.00712,0.00964,63.4,62.8,9,774,.,.,4.24,0.00,0.00
15min,AgWx,beryljct,423,25SEP2020:12:30:00,83.9,13.44,80.3,81.6,81.8,82.4,81.4,18,20,16,0.636,33.7,36.6,31.4,11.14,12.3,200,20,17.6,0.00714,0.00971,63.9,62.8,9,772,.,.,4.24,0.00,0.00
15min,AgWx,beryljct,423,25SEP2020:12:45:00,84.4,13.45,81.8,82.6,82.3,82.8,81.4,17,19,16,0.656,33.1,35.9,31.1,16.62,12.0,191,16,17.3,0.00720,0.00975,64.4,62.9,9,784,.,.,4.24,0.00,0.00
15min,AgWx,beryljct,423,25SEP2020:13:00:00,84.9,13.44,81.8,82.2,82.2,83.1,81.5,17,18,16,0.679,33.1,35.1,31.6,12.61,11.7,190,15,16.1,0.00719,0.00971,64.9,62.9,9,786,.,.,4.24,0.00,0.00
15min,AgWx,beryljct,423,25SEP2020:13:15:00,85.6,13.42,81.9,82.4,82.7,83.8,81.7,17,19,15,0.599,33.6,36.7,31.5,18.68,12.6,188,28,20.7,0.00734,0.00998,65.4,63.0,9,787,.,.,4.25,0.00,0.00
15min,AgWx,beryljct,423,25SEP2020:13:30:00,85.9,13.43,81.5,82.5,82.8,83.6,82.2,16,18,15,0.596,32.4,35.0,30.1,7.738,14.2,193,13,20.1,0.00752,0.01045,65.9,63.0,9,772,.,.,4.25,0.00,0.00
15min,AgWx,beryljct,423,25SEP2020:13:45:00,86.0,13.4,82.0,82.7,82.4,83.1,81.9,16,18,15,0.629,32.4,34.0,30.6,11.84,12.8,206,17,19.6,0.00719,0.00987,66.4,63.1,9,759,.,.,4.25,0.00,0.00
15min,AgWx,beryljct,423,25SEP2020:14:00:00,86.2,13.43,82.9,83.4,82.7,83.5,81.8,16,18,14,0.611,32.4,34.9,29.4,14.8,12.5,206,26,20.0,0.00706,0.00971,66.9,63.2,9,741,.,.,4.25,0.00,0.00
15min,AgWx,beryljct,423,25SEP2020:14:15:00,86.5,13.39,81.8,82.3,82.9,83.6,82.2,16,17,15,0.588,31.9,34.5,30.0,9.51,14.2,187,17,22.2,0.00717,0.01009,67.3,63.3,9,713,.,.,4.24,0.00,0.00
15min,AgWx,beryljct,423,25SEP2020:14:30:00,86.7,13.39,82.6,83.5,82.9,83.5,82.1,16,17,15,0.635,31.8,33.4,30.4,17.32,13.7,184,12,21.4,0.00691,0.00972,67.8,63.4,9,687,.,.,4.25,0.00,0.00
15min,AgWx,beryljct,423,25SEP2020:14:45:00,86.8,13.39,83.1,82.9,83.0,83.5,82.2,16,17,15,0.635,32.0,34.7,29.4,13.81,13.3,194,16,21.9,0.00641,0.00915,68.2,63.5,9,615,.,.,4.25,0.00,0.00
15min,AgWx,beryljct,423,25SEP2020:15:00:00,86.7,13.39,83.2,83.1,82.8,84.0,82.3,16,17,15,0.624,31.8,34.4,30.2,9.23,13.2,197,11,18.4,0.00640,0.00913,68.6,63.6,9,615,.,.,4.24,0.00,0.00
15min,AgWx,beryljct,423,25SEP2020:15:15:00,86.6,13.38,82.3,82.6,82.9,83.6,82.1,16,18,14,0.556,31.5,34.4,29.7,13.83,13.7,199,13,20.9,0.00623,0.00901,69.0,63.7,9,580,.,.,4.25,0.01,0.00
15min,AgWx,beryljct,423,25SEP2020:15:30:00,86.4,13.38,83.1,82.5,82.8,83.2,82.3,15,17,14,0.584,31.0,34.0,29.3,10.9,13.0,195,11,22.3,0.00580,0.00848,69.3,63.8,9,523,.,.,4.25,0.00,0.00
15min,AgWx,beryljct,423,25SEP2020:15:45:00,86.2,13.4,81.7,82.5,82.6,83.4,82.1,16,17,14,0.574,31.2,33.4,29.3,18.24,12.6,198,18,18.2,0.00546,0.00804,69.6,64.0,9,489,.,.,4.25,0.00,0.00
15min,AgWx,beryljct,423,25SEP2020:16:00:00,85.9,13.38,82.3,82.4,82.3,82.9,81.9,15,17,14,0.546,30.4,33.4,28.5,14.97,12.2,191,15,18.0,0.00520,0.00771,69.8,64.1,9,458,.,.,4.25,0.00,0.00
15min,AgWx,beryljct,423,25SEP2020:16:15:00,85.7,13.38,82.0,82.1,82.2,82.9,81.9,15,17,13,0.562,30.1,33.0,27.2,15.59,13.1,198,8.9,21.4,0.00505,0.00768,70.0,64.2,9,411,.,.,4.25,0.00,0.00
15min,AgWx,beryljct,423,25SEP2020:16:30:00,85.1,13.38,81.0,81.1,81.7,82.1,81.1,15,16,14,0.585,29.7,31.7,27.9,8.88,13.5,195,9.5,19.9,0.00478,0.00744,70.2,64.4,9,358,.,.,4.25,0.00,0.00
15min,AgWx,beryljct,423,25SEP2020:16:45:00,84.5,13.41,81.4,81.2,81.4,81.8,81.0,16,17,14,0.591,30.3,32.7,28.4,12.54,12.1,196,11,17.1,0.00413,0.00652,70.3,64.5,9,306,.,.,4.25,0.00,0.00
15min,AgWx,beryljct,423,25SEP2020:17:00:00,83.8,13.46,81.0,80.5,81.1,81.5,80.5,16,17,14,0.576,30.4,31.8,28.5,14.21,12.2,199,8.8,15.3,0.00383,0.00620,70.4,64.7,9,257,.,.,4.25,0.00,0.00
15min,AgWx,beryljct,423,25SEP2020:17:15:00,83.1,13.48,80.3,80.1,80.6,80.9,80.1,16,17,15,0.570,30.6,31.9,29.4,14.71,12.9,193,8.6,17.0,0.00364,0.00608,70.4,64.8,9,210,.,.,4.25,0.00,0.00
15min,AgWx,beryljct,423,25SEP2020:17:30:00,82.2,13.49,79.5,79.3,79.8,80.2,79.1,16,18,15,0.570,30.2,31.6,28.8,14.12,12.8,192,9.4,19.0,0.00196,0.00248,70.4,64.9,9,158,.,.,4.25,0.00,0.00
15min,AgWx,beryljct,423,25SEP2020:17:45:00,81.1,13.29,78.5,78.7,78.9,79.3,78.5,17,18,16,0.565,30.3,31.8,29.5,11.95,11.9,189,9.5,18.7,0.00174,0.00224,70.3,65.1,9,110,.,.,4.25,0.00,0.00
15min,AgWx,beryljct,423,25SEP2020:18:00:00,79.8,13.15,77.0,76.9,77.7,78.8,76.9,18,19,17,0.579,30.6,31.3,29.9,11,10.3,190,5.7,14.2,0.00146,0.00192,70.2,65.2,9,66,.,.,4.26,0.00,0.00
15min,AgWx,beryljct,423,25SEP2020:18:15:00,78.2,13.07,74.6,75.0,76.3,77.0,74.9,18,19,18,0.556,30.2,30.7,29.7,8,9.3,185,6.5,12.8,0.00124,0.00166,70.1,65.3,9,32,.,.,4.25,0.00,0.00
15min,AgWx,beryljct,423,25SEP2020:18:30:00,76.2,13.05,70.2,71.1,73.1,75.0,71.1,21,23,19,0.593,30.6,31.4,29.9,5.831,6.9,188,4.8,9.0,0.00084,0.00117,69.9,65.4,9,8,.,.,4.26,0.00,0.00
15min,AgWx,beryljct,423,25SEP2020:18:45:00,73.9,13.01,69.1,68.9,70.6,71.5,68.9,22,24,21,0.585,30.4,31.3,29.8,5.744,6.1,194,4.6,7.0,0.00067,0.00096,69.8,65.5,9,3,.,.,4.26,0.00,0.00
15min,AgWx,beryljct,423,25SEP2020:19:00:00,71.8,13.01,69.7,69.9,69.6,70.0,68.9,23,24,22,0.557,30.0,30.9,29.7,6.029,6.5,184,5.4,7.6,0.00070,0.00098,69.5,65.6,9,0,.,.,4.26,0.00,0.00
15min,AgWx,beryljct,423,25SEP2020:19:15:00,70.4,12.98,69.0,68.2,69.4,70.3,68.1,23,24,22,0.562,29.7,30.5,29.2,7.015,6.2,165,6.2,7.5,0.00066,0.00094,69.3,65.7,9,0,.,.,4.26,0.00,0.00
15min,AgWx,beryljct,423,25SEP2020:19:30:00,69.2,12.98,67.6,67.4,68.0,68.3,67.4,24,24,23,0.540,29.6,30.2,29.0,5.809,6.2,169,7.0,7.6,0.00063,0.00090,69.0,65.8,9,0,.,.,4.27,0.01,0.00
15min,AgWx,beryljct,423,25SEP2020:19:45:00,68.1,12.98,66.9,67.4,67.2,67.6,66.7,24,25,23,0.538,28.8,29.4,28.5,6.094,5.6,170,5.4,6.9,0.00055,0.00080,68.7,65.9,9,0,.,.,4.26,0.00,0.00
15min,AgWx,beryljct,423,25SEP2020:20:00:00,67.2,12.97,66.6,67.1,67.5,67.9,67.1,24,24,23,0.543,29.1,29.6,28.8,5.502,5.7,169,4.9,6.6,0.00056,0.00081,68.4,65.9,9,0,.,.,4.26,0.00,0.00
15min,AgWx,beryljct,423,25SEP2020:20:15:00,66.3,12.96,67.0,66.1,66.0,67.1,64.6,25,26,24,0.526,28.9,29.3,28.2,5.48,4.8,175,4.3,5.9,0.00043,0.00065,68.1,66.0,9,0,.,.,4.26,0.00,0.00
15min,AgWx,beryljct,423,25SEP2020:20:30:00,65.4,12.93,65.6,64.6,65.0,66.5,63.2,25,27,24,0.525,28.6,29.3,27.4,5.305,5.3,178,6.6,6.8,0.00048,0.00070,67.9,66.0,10,0,.,.,4.27,0.00,0.00
15min,AgWx,beryljct,423,25SEP2020:20:45:00,64.5,12.94,65.6,65.1,64.6,65.7,63.0,26,27,24,0.526,28.5,29.3,27.6,6.138,6.4,180,4.8,7.7,0.00059,0.00082,67.6,66.1,9,0,.,.,4.27,0.00,0.00
15min,AgWx,beryljct,423,25SEP2020:21:00:00,64.1,12.95,67.4,66.5,65.8,67.0,64.6,25,26,24,0.543,28.8,29.5,27.7,6.226,6.1,181,4.8,6.9,0.00058,0.00082,67.2,66.1,9,0,.,.,4.27,0.00,0.00
15min,AgWx,beryljct,423,25SEP2020:21:15:00,64.1,12.94,66.5,66.1,66.3,67.1,65.7,25,26,24,0.545,29.3,29.7,28.8,5.174,5.9,175,6.1,7.1,0.00057,0.00081,67.0,66.1,9,0,.,.,4.27,0.00,0.00
15min,AgWx,beryljct,423,25SEP2020:21:30:00,63.9,12.93,64.7,64.3,65.1,66.1,63.2,26,28,25,0.543,29.3,30.0,28.7,5.415,5.3,172,6.6,6.5,0.00047,0.00069,66.7,66.1,9,0,.,.,4.27,0.00,0.00
15min,AgWx,beryljct,423,25SEP2020:21:45:00,63.4,12.92,63.1,64.8,64.0,65.0,63.0,27,27,26,0.561,29.0,29.9,27.9,4.669,5.3,175,6.3,6.6,0.00046,0.00066,66.4,66.2,9,0,.,.,4.27,0.01,0.00
15min,AgWx,beryljct,423,25SEP2020:22:00:00,63.0,12.92,65.3,65.0,64.3,65.2,63.6,27,29,26,0.567,30.0,30.7,29.3,4.494,5.3,163,7.2,6.3,0.00046,0.00066,66.1,66.2,9,0,.,.,4.27,0.00,0.00
15min,AgWx,beryljct,423,25SEP2020:22:15:00,62.6,12.9,64.4,63.6,63.5,65.4,61.5,29,31,26,0.572,30.5,31.2,29.7,6.489,6.3,156,6.7,8.4,0.00054,0.00075,65.9,66.1,9,0,.,.,4.27,0.00,0.00
15min,AgWx,beryljct,423,25SEP2020:22:30:00,62.3,12.88,63.0,62.0,62.5,64.5,61.0,30,32,27,0.590,30.4,31.1,29.7,5.985,6.3,158,6.4,8.1,0.00052,0.00072,65.6,66.1,10,0,.,.,4.27,0.00,0.00
15min,AgWx,beryljct,423,25SEP2020:22:45:00,61.2,12.91,53.8,54.2,57.3,62.6,54.2,41,47,30,0.666,33.3,34.9,30.8,0,2.0,229,61,6.1,-0.00003,-0.00000,65.4,66.1,10,0,.,.,4.27,0.00,0.00
15min,AgWx,beryljct,423,25SEP2020:23:00:00,59.3,12.9,55.8,57.2,55.8,58.5,53.9,42,47,36,0.647,32.7,34.1,31.7,4.187,0.3,298,3.0,4.2,-0.00034,-0.00052,65.1,66.1,10,0,.,.,4.28,0.00,0.00
15min,AgWx,beryljct,423,25SEP2020:23:15:00,58.1,12.9,58.3,57.0,56.5,57.9,55.3,41,46,35,0.597,33.0,35.6,30.6,1.359,2.4,317,8.8,4.7,0.00001,0.00005,64.9,66.0,9,0,.,.,4.28,0.00,0.00
15min,AgWx,beryljct,423,25SEP2020:23:30:00,57.1,12.88,55.1,54.3,56.3,58.0,54.0,39,44,35,0.625,31.6,33.0,30.6,1.381,1.5,11,46,3.1,-0.00012,-0.00014,64.7,66.0,9,0,.,.,4.27,0.00,0.00
15min,AgWx,beryljct,423,25SEP2020:23:45:00,56.2,12.87,55.4,55.8,54.7,56.3,53.2,43,47,39,0.601,32.5,33.8,31.1,2.806,1.7,211,38,3.7,-0.00010,-0.00011,64.5,66.0,9,0,.,.,4.28,0.00,0.00
15min,AgWx,bigpiney,439,25SEP2020:00:00:00,39.9,12.6,36.2,37.8,37.4,42.2,33.9,62,70,52,0.441,25.4,27.2,23.8,5.787,4.7,200,7.9,6.6,0.00007,0.00010,48.4,48.2,44,0,0,0.0,0.05,0.00,0.00
15min,AgWx,bigpiney,439,25SEP2020:00:15:00,39.2,12.6,33.3,33.4,35.3,37.5,33.4,67,70,59,0.448,25.4,27.5,24.2,5.941,5.4,195,5.0,7.1,0.00006,0.00009,48.4,48.2,44,0,0,0.0,0.05,0.00,0.00
15min,AgWx,bigpiney,439,25SEP2020:00:30:00,38.5,12.59,32.7,33.3,33.5,34.9,32.2,71,74,69,0.453,25.2,26.4,24.1,6.248,6.0,201,4.3,7.3,0.00005,0.00007,48.3,48.2,44,0,0,0.0,0.05,0.00,0.00
15min,AgWx,bigpiney,439,25SEP2020:00:45:00,38.0,12.59,32.2,32.4,32.8,33.5,32.4,73,74,70,0.455,25.0,25.6,24.3,6.029,5.9,208,3.7,6.9,0.00004,0.00006,48.2,48.2,44,0,0,0.0,0.05,0.00,0.00
15min,AgWx,bigpiney,439,25SEP2020:01:00:00,37.5,12.57,34.1,33.4,33.3,34.5,32.2,72,74,69,0.463,25.1,25.8,24.6,6.314,5.8,213,3.0,6.8,0.00004,0.00006,48.2,48.2,44,0,0,0.0,0.05,0.00,0.00
15min,AgWx,bigpiney,439,25SEP2020:01:15:00,37.2,12.57,38.2,39.3,35.4,40.1,33.0,68,73,58,0.475,25.8,27.7,24.8,4.823,5.8,208,8.5,7.2,0.00007,0.00010,48.1,48.2,44,0,0,0.0,0.05,0.00,0.00
15min,AgWx,bigpiney,439,25SEP2020:01:30:00,37.4,12.56,30.8,31.5,35.5,39.0,31.5,66,75,59,0.449,25.3,26.1,24.3,3.924,5.3,229,15,7.2,0.00006,0.00009,48.1,48.2,44,0,0,0.0,0.05,0.00,0.00
15min,AgWx,bigpiney,439,25SEP2020:01:45:00,37.2,12.55,37.2,36.0,31.9,36.0,30.6,76,79,66,0.476,25.1,26.2,24.3,5.568,5.1,259,26,6.6,0.00001,0.00002,48.0,48.2,44,0,0,0.0,0.05,0.00,0.00
15min,AgWx,bigpiney,439,25SEP2020:02:00:00,37.1,12.55,36.1,36.0,36.5,37.1,36.0,65,66,63,0.468,25.8,26.2,25.3,1.929,3.6,264,9.0,5.1,0.00001,0.00003,48.0,48.2,44,0,0,0.0,0.05,0.00,0.00
15min,AgWx,bigpiney,439,25SEP2020:02:15:00,37.1,12.54,36.8,35.1,34.0,36.1,31.3,70,76,65,0.472,25.1,26.7,23.3,0.723,2.2,188,45,5.3,-0.00007,-0.00007,47.9,48.2,44,0,0,0.0,0.05,0.00,0.00
15min,AgWx,bigpiney,439,25SEP2020:02:30:00,36.9,12.53,38.7,38.0,36.6,38.0,34.5,65,69,62,0.478,26.0,26.8,24.4,0,0.4,270,26,1.2,-0.00019,-0.00029,47.8,48.2,45,0,0,0.0,0.05,0.00,0.00
15min,AgWx,bigpiney,439,25SEP2020:02:45:00,36.7,12.53,32.5,32.5,37.0,39.2,32.5,63,73,59,0.455,25.4,26.1,23.6,6.226,3.0,202,12,6.6,-0.00001,0.00001,47.8,48.2,44,0,0,0.0,0.05,0.00,0.00
15min,AgWx,bigpiney,439,25SEP2020:03:00:00,36.7,12.51,34.9,34.7,34.7,36.5,32.4,69,74,64,0.460,25.4,26.4,24.5,3.573,4.9,232,14,7.3,0.00004,0.00006,47.7,48.1,44,0,0,0.0,0.05,0.00,0.00
15min,AgWx,bigpiney,439,25SEP2020:03:15:00,36.7,12.5,40.0,37.7,37.2,38.6,34.7,62,68,59,0.476,25.4,26.2,24.4,2.959,3.1,257,20,5.5,-0.00000,0.00002,47.6,48.1,44,0,0,0.0,0.05,0.00,0.00
15min,AgWx,bigpiney,439,25SEP2020:03:30:00,36.9,12.5,41.1,40.7,39.4,40.7,37.9,58,62,55,0.479,25.9,26.3,25.5,0,1.6,208,16,3.6,-0.00008,-0.00010,47.6,48.1,44,0,0,0.0,0.05,0.00,0.00
15min,AgWx,bigpiney,439,25SEP2020:03:45:00,37.0,12.49,32.4,32.6,35.6,40.7,31.7,64,73,55,0.451,24.6,26.1,23.2,4.801,3.6,198,16,5.6,0.00001,0.00004,47.5,48.1,44,0,0,0.0,0.05,0.00,0.00
15min,AgWx,bigpiney,439,25SEP2020:04:00:00,36.6,12.49,33.4,32.5,33.0,35.8,32.0,71,73,66,0.449,24.7,26.1,23.9,4.406,2.9,214,9.9,6.4,-0.00004,-0.00003,47.5,48.1,45,0,0,0.0,0.05,0.00,0.00
15min,AgWx,bigpiney,439,25SEP2020:04:15:00,36.2,12.48,30.2,30.8,32.9,35.4,30.8,71,73,66,0.426,24.5,25.7,22.5,3.135,2.6,243,30,5.0,-0.00005,-0.00005,47.4,48.1,44,0,0,0.0,0.05,0.00,0.00
15min,AgWx,bigpiney,439,25SEP2020:04:30:00,35.6,12.47,35.0,33.1,33.9,35.5,30.7,68,75,64,0.434,24.5,25.1,23.0,4.494,2.6,272,20,5.2,-0.00004,-0.00004,47.3,48.0,44,0,0,0.0,0.05,0.00,0.00
15min,AgWx,bigpiney,439,25SEP2020:04:45:00,35.0,12.45,35.9,35.6,35.7,37.1,33.2,65,69,62,0.459,24.9,25.9,22.8,2.499,2.8,274,18,5.4,-0.00002,-0.00001,47.3,48.1,44,0,0,0.0,0.05,0.00,0.00
15min,AgWx,bigpiney,439,25SEP2020:05:00:00,34.5,12.46,36.3,36.3,35.6,36.3,34.6,63,65,61,0.444,24.2,25.0,23.2,1.841,3.1,257,24,5.3,-0.00000,0.00002,47.2,48.1,44,0,0,0.0,0.05,0.00,0.00
15min,AgWx,bigpiney,439,25SEP2020:05:15:00,33.9,12.43,26.8,29.6,34.9,37.1,29.6,63,70,58,0.386,23.5,25.1,20.0,3.551,2.3,185,41,6.8,-0.00005,-0.00005,47.2,48.1,44,0,0,0.0,0.05,0.00,0.00
15min,AgWx,bigpiney,439,25SEP2020:05:30:00,33.3,12.42,35.3,34.4,30.9,34.4,28.0,73,79,67,0.449,23.1,25.0,20.5,2.477,2.7,220,18,5.2,-0.00004,-0.00005,47.1,48.0,45,0,0,0.0,0.05,0.00,0.00
15min,AgWx,bigpiney,439,25SEP2020:05:45:00,32.4,12.41,33.9,35.1,35.2,36.4,34.2,65,67,63,0.448,24.5,25.4,23.5,4.428,3.3,206,10,4.7,-0.00000,0.00002,47.0,48.0,45,0,0,0.0,0.05,0.00,0.00
15min,AgWx,bigpiney,439,25SEP2020:06:00:00,31.9,12.41,27.1,28.2,31.2,34.9,28.2,71,78,65,0.397,23.0,24.8,21.1,3.551,5.1,220,12,7.2,0.00003,0.00005,47.0,48.0,44,0,0,0.0,0.05,0.00,0.00
15min,AgWx,bigpiney,439,25SEP2020:06:15:00,31.6,12.41,35.6,36.3,31.2,36.3,27.7,74,81,64,0.467,23.9,26.0,21.4,1.513,3.4,241,21,5.7,-0.00002,-0.00002,46.9,48.0,45,2,0,0.0,0.05,0.00,0.00
15min,AgWx,bigpiney,439,25SEP2020:06:30:00,31.5,12.43,36.5,35.7,34.2,36.3,30.3,66,75,62,0.457,24.2,25.8,21.3,2.85,1.7,270,18,3.5,-0.00023,-0.00018,46.8,47.9,45,12,0,0.0,0.05,0.00,0.00
15min,AgWx,bigpiney,439,25SEP2020:06:45:00,31.6,12.52,31.0,32.4,35.0,36.6,32.4,65,69,61,0.427,24.3,25.5,21.9,3.135,2.7,249,16,3.9,-0.00007,0.00004,46.8,47.9,45,51,0,0.0,0.05,0.00,0.00
15min,AgWx,bigpiney,439,25SEP2020:07:00:00,31.9,12.68,32.7,32.3,32.2,34.3,31.6,73,76,68,0.473,24.5,25.7,23.1,4.538,3.7,228,15,4.9,0.00011,0.00023,46.7,47.9,44,91,0,0.0,0.05,0.00,0.00
15min,AgWx,bigpiney,439,25SEP2020:07:15:00,32.8,13.06,37.1,36.4,34.4,36.4,32.3,75,77,73,0.537,27.3,28.8,25.7,2.653,2.0,209,38,4.5,0.00024,0.00032,46.7,47.9,44,136,0,0.0,0.05,0.00,0.00
15min,AgWx,bigpiney,439,25SEP2020:07:30:00,34.4,13.37,38.2,38.0,37.0,38.0,36.4,74,76,72,0.559,29.5,30.1,29.0,1.359,1.9,100,27,3.5,0.00045,0.00054,46.6,47.9,45,179,0,0.0,0.05,0.00,0.00
15min,AgWx,bigpiney,439,25SEP2020:07:45:00,36.7,13.59,41.0,40.8,39.8,40.8,37.9,70,73,66,0.570,30.7,31.5,29.5,0,0.6,74,23,2.9,0.00064,0.00071,46.5,47.9,44,218,0,0.0,0.05,0.00,0.00
15min,AgWx,bigpiney,439,25SEP2020:08:00:00,39.6,14.71,44.8,44.2,42.7,44.3,40.8,63,67,55,0.545,30.8,31.7,29.1,0,0.4,44,71,1.9,0.00086,0.00094,46.5,47.9,44,253,0,0.0,0.05,0.00,0.00
15min,AgWx,bigpiney,439,25SEP2020:08:15:00,42.8,14.55,46.8,47.0,45.9,47.1,44.3,54,57,51,0.566,30.1,31.4,29.3,1.359,0.2,141,20,1.5,0.00116,0.00125,46.4,47.8,44,305,0,0.0,0.05,0.00,0.00
15min,AgWx,bigpiney,439,25SEP2020:08:30:00,46.3,14.48,49.4,50.2,48.7,50.2,46.9,49,52,48,0.603,30.5,32.3,29.1,1.973,0.2,100,33,2.0,0.00149,0.00160,46.4,47.8,44,354,0,0.0,0.05,0.00,0.00